Regional Weather Roundup
Issued by NWS

Home | Current Version | Previous Version | Graphics & Text | Print | Product List | Glossary On
Versions: 1 2 3 4 5 6 7 8 9 10 11 12 13 14 15 16 17 18 19 20 21 22 23 24 25 26 27 28 29 30 31 32 33 34 35 36 37 38 39 40 41 42 43 44 45 46 47 48 49 50
092
ASUS45 KBOU 220610
RWRCO

WEATHER ROUNDUP FOR COLORADO
NATIONAL WEATHER SERVICE DENVER/BOULDER CO
1100 PM MST SUN JAN 21 2018

NOTE: "FAIR" INDICATES FEW OR NO CLOUDS BELOW 12000 FEET WITH NO
SIGNIFICANT WEATHER AND/OR OBSTRUCTIONS TO VISIBILITY.

COZ001>005-013-030-031-220700-
...NORTHWEST COLORADO...

CITY           SKY/WX    TMP DP  RH WIND       PRES   REMARKS
CRAIG          CLOUDY    13   7  77 N6        30.16R WCI   4
HAYDEN         MOCLDY   N/A N/A N/A W5        30.14R
MEEKER         MOCLDY    12   8  84 CALM      30.15R
RABBIT EARS PA SNOW       3   1  92 W12G20    29.92S VSB 1/2 WCI -13
STEAMBOAT SPGS MOCLDY    12  10  89 CALM      30.11R
WALDEN         FAIR       7   1  78 N3        30.01R
$$

COZ006>008-011-220700-
...WEST CENTRAL VALLEYS...

CITY           SKY/WX    TMP DP  RH WIND       PRES   REMARKS
GRAND JUNCTION FAIR      17  11  77 VRB3      30.21R
MONTROSE       CLOUDY    19  12  74 SE5       30.21R WCI  12
EAGLE          CLOUDY    13   8  81 E3        30.13R
RIFLE          FAIR      23  17  78 W9        30.18R WCI  13
DELTA          MOCLDY    27  14  58 W9        30.19R WCI  18
NUCLA          FAIR      14   9  79 SE10      30.23R WCI   1
$$

COZ017>023-064>068-220700-
...SOUTHWEST COLORADO...

CITY           SKY/WX    TMP DP  RH WIND       PRES   REMARKS
DURANGO        FAIR      21   8  57 CALM      30.03R
CORTEZ         FAIR      12   8  84 E6        30.16R WCI   3
PAGOSA SPRINGS CLOUDY    13  11  92 CALM      30.02R
TELLURIDE      FLURRIES  10   7  85 W12       30.07R WCI  -4
WOLF CREEK PAS FAIR       1  -6  71 SW5       29.92S WCI  -8
$$

COZ009-010-012-014-032>034-037-058>063-220700-
...CENTRAL COLORADO...

CITY           SKY/WX    TMP DP  RH WIND       PRES   REMARKS
ASPEN          CLOUDY    15   9  76 N6        30.05R WCI   6
BUENA VISTA    FAIR      16   2  55 NW13      29.93R WCI   2
COPPER MTN     NOT AVBL
BERTHOUD PASS  HVY SNOW  -4 -15  59 N15       29.76F VSB 1/4 WCI -25
COTTONWOOD PAS   N/A     18   3  53 W22G38    29.85R WCI   0
GUNNISON       FAIR      14   8  77 W9        30.04R WCI   2
KREMMLING      FAIR      14  10  85 CALM      30.05R
LEADVILLE      CLOUDY     5   0  79 N14       29.90R WCI -12
MONARCH PASS   LGT SNOW   0  -4  85 SW21      29.92R VSB 3/4 WCI -23
SALIDA         FAIR      19   7  60 W7G16     30.01R WCI   9
SUNLIGHT       CLOUDY   N/A N/A N/A MISG      30.02R
WILKERSON PASS   N/A      3   0  85 N12G22    29.79S WCI -13
$$

COZ069>075-220700-
...SAN LUIS VALLEY/SANGRE DE CRISTO MOUNTAINS...

CITY           SKY/WX    TMP DP  RH WIND       PRES   REMARKS
ALAMOSA        FAIR      17   2  51 NW12      29.93R WCI   4
DEL NORTE      FAIR      18   1  45 W17       29.94S WCI   3
LA VETA PASS   FAIR       9   3  78 SW17G25     N/A  WCI -10
SAGUACHE       CLOUDY    18   5  57 NW13G23   29.95R WCI   4
$$

COZ035-036-038>040-220700-
...NORTHERN COLORADO FRONT RANGE...

CITY           SKY/WX    TMP DP  RH WIND       PRES   REMARKS
DENVER INTL AP LGT SNOW  25  16  68 N31       29.94F BLWGSNOWWCI   8
DMNS CITY PARK NOT AVBL
AURORA         MOCLDY    24  17  72 N20G30    29.94S WCI  10
FRONT RANGE AP LGT SNOW  26  20  77 N18G30    29.94S WCI  13
ERIE MUNI ARPT CLOUDY    26  15  63 CALM      30.01S
BOULDER MUN AP CLOUDY    27  21  80 S3        29.93F
CENTENNIAL     CLOUDY    23  15  71 NW9       29.94R WCI  13
BROOMFIELD     CLOUDY    25  16  68 W6        29.94F WCI  18
FORT COLLINS   CLOUDY    26  18  71 N17       29.96S WCI  13
LONGMONT       CLOUDY    27  18  70 CALM      29.97S
$$

COZ041-046-047-076>085-087-088-220700-
...PIKES PEAK/PALMER DIVIDE AND SOUTHERN FOOTHILLS...

CITY           SKY/WX    TMP DP  RH WIND       PRES   REMARKS
COLO. SPRINGS  FAIR      21  13  71 NW14      29.91R WCI   8
A. F. ACADEMY  FLURRIES  19  12  72 N18G26    29.88R WCI   4
SCHRIEVER AFB  FAIR      19  12  73 N14       29.91R WCI   6
CHEYENNE MTN   FAIR      19  10  67 NW6       29.83R WCI  11
ELLICOTT         N/A    N/A N/A N/A NW9         N/A
FALCON         FLURRIES  18  12  77 NW15G23   29.88R WCI   3
FORT CARSON    FAIR      22  11  63 N12       29.91R WCI  11
LIMON          LGT SNOW  21  20  96 NW32G47   29.86S VSB 1   WCI   2
MONUMENT HILL  LGT SNOW  16  14  93 NW16      29.90R WCI   0
CANON CITY     FAIR      23  14  68 W7        29.93S WCI  15
WALSENBURG     FAIR      10   9  92 SW8       29.94R WCI  -1
TRINIDAD       CLOUDY    22  19  89 W5        29.94R WCI  16
$$

COZ042>045-048>051-090-091-220700-
...NORTHEAST COLORADO...

CITY           SKY/WX    TMP DP  RH WIND       PRES   REMARKS
GREELEY ARPT   FAIR      25  17  72 NW13      29.97S WCI  14
AKRON          FOG       23  22  96 NW30G39   29.87R VSB 3/4 WCI   5
BURLINGTON     FOG       26  24  92 NW35G51   29.78R VSB 1/2 WCI   9
WRAY           CLOUDY    28  28 100 NW30G40   29.83R WCI  13
YUMA           LGT SNOW  25  23  93 NW24G31   29.85R WCI   9
STERLING       LGT SNOW  28  25  86 N32       29.88R WCI  12
HOLYOKE        CLOUDY    30  27  86 N29G37    29.84R WCI  15
FORT MORGAN    CLOUDY    25  19  77 NW28      29.94R WCI   9
$$

COZ086-089-092>099-220700-
...SOUTHEAST COLORADO...

CITY           SKY/WX    TMP DP  RH WIND       PRES   REMARKS
PUEBLO         CLOUDY    29  16  58 N18G26    29.94R WCI  16
LA JUNTA       CLOUDY    28  18  66 NW18      29.94R WCI  15
LAMAR          CLOUDY    29  21  72 NW24G35   29.86R WCI  15
SPRINGFIELD      N/A     25  21  85 NW25G40   29.84R WCI   9
$$




USA.gov is the U.S. government's official web portal to all federal, state and local government web resources and services.